Location: ????????
(60.4333°N, 46.4710°E)
Time: 02:32:16
(UTC+00:00)

Cosmos 1821 Rocket - Pass Details

Date: 25 November 2020
Orbit: 946 x 1004 km, 82.9° (Epoch: 19 January)

Event Time Altitude Azimuth Distance (km) Brightness Sun altitude
Rises 14:54:51 0° 345° (NNW) 3,650 7.1 -19.7°
Reaches altitude 10° 14:57:24 10° 350° (N) 2,707 6.4 -20.1°
Maximum altitude 15:03:31 57° 68° (ENE) 1,141 4.0 -20.8°
Enters shadow 15:08:50 14° 145° (SE) 2,438 5.8 -21.5°
